Whitefield, NH

4:35 AM EST on February 20, 2017 (GMT -0500)
Mount Washington Regional

Weather History for KHIE - April, 2014

Change the Weather History Date:

Monday, April 14, 2014

  Actual Average Record
Temperature  
Mean Temperature 54 °F -  
Max Temperature 78 °F 51 °F 78 °F (2014)
Min Temperature 30 °F 24 °F 15 °F (2003)
Degree Days  
Heating Degree Days 12    
Growing Degree Days 4 (Base 50)    
Moisture  
Dew Point 41 °F    
Average Humidity 64    
Maximum Humidity 92    
Minimum Humidity 32    
Precipitation  
Precipitation 0.00 in - - ()
Sea Level Pressure  
Sea Level Pressure 29.85 in    
Wind  
Wind Speed 3 mph (SSW)    
Max Wind Speed 17 mph    
Max Gust Speed 31 mph    
Visibility 10 miles    
Events      
Averages and records for this station are not official NWS values.
T = Trace of Precipitation, MM = Missing Value Source: NWS Daily Summary

Daily Weather History Graph

Daily Weather History Graph

Search for Another Location

Airport or City:

Trip Planner

Search our weather history database for the weather conditions in past years. The results will help you decide how hot, cold, wet, or windy it might be!

Date:

Astronomy

Apr. 14, 2014 Rise Set
Actual Time 6:04 AM EDT 7:29 PM EDT
Civil Twilight 5:34 AM EDT 7:59 PM EDT
Nautical Twilight 4:57 AM EDT 8:36 PM EDT
Astronomical Twilight 4:18 AM EDT 9:15 PM EDT
Moon 7:04 PM EDT (4/14) 5:36 AM EDT (4/14)
Length of Visible Light 14h 25m
Length of Day
13h 25m
Full, 100% of the Moon is Illuminated
Apr 14
Full
Apr 15
Full
Apr 22
Last Quarter
Apr 29
New
May 6
First Quarter

Hourly Weather History & Observations

Time (EDT) Temp. Dew Point Humidity Pressure Visibility Wind Dir Wind Speed Gust Speed Precip Events Conditions
12:52 AM 34.0 °F 30.9 °F 89% 30.00 in 10.0 mi Calm Calm - N/A   Clear
1:52 AM 33.1 °F 30.0 °F 89% 29.98 in 10.0 mi Calm Calm - N/A   Clear
2:52 AM 32.0 °F 30.0 °F 92% 29.99 in 10.0 mi Calm Calm - N/A   Clear
3:52 AM 30.9 °F 28.9 °F 92% 29.97 in 9.0 mi Calm Calm - N/A   Clear
5:10 AM 30.9 °F 28.9 °F 92% 29.92 in 9.0 mi Calm Calm - N/A   Scattered Clouds
5:52 AM 30.9 °F 28.9 °F 92% 29.94 in 9.0 mi Calm Calm - N/A   Clear
6:52 AM 32.0 °F 30.0 °F 92% 29.94 in 10.0 mi Calm Calm - N/A   Clear
7:52 AM 37.0 °F 33.1 °F 86% 29.92 in 10.0 mi Calm Calm - N/A   Clear
8:52 AM 46.0 °F 37.9 °F 73% 29.91 in 10.0 mi Calm Calm - N/A   Clear
9:52 AM 55.9 °F 42.1 °F 60% 29.88 in 10.0 mi Calm Calm - N/A   Clear
10:52 AM 64.0 °F 45.0 °F 50% 29.85 in 10.0 mi Calm Calm - N/A   Clear
11:52 AM 77.0 °F 45.0 °F 32% 29.81 in 10.0 mi SW 15.0 mph 24.2 mph N/A   Clear
12:52 PM 75.0 °F 46.9 °F 37% 29.80 in 10.0 mi SW 13.8 mph 27.6 mph N/A   Clear
2:52 PM 75.9 °F 51.1 °F 42% 29.77 in 10.0 mi SSW 17.3 mph 27.6 mph N/A   Clear
3:52 PM 73.9 °F 48.9 °F 41% 29.76 in 10.0 mi SSW 13.8 mph 31.1 mph N/A   Scattered Clouds
5:52 PM 73.9 °F 48.0 °F 40% 29.71 in 10.0 mi South 9.2 mph - N/A   Clear
6:52 PM 70.0 °F 46.9 °F 44% 29.72 in 10.0 mi South 12.7 mph 20.7 mph N/A   Clear
7:52 PM 68.0 °F 48.9 °F 50% 29.74 in 10.0 mi South 9.2 mph - N/A   Clear
8:52 PM 66.9 °F 50.0 °F 54% 29.75 in 10.0 mi SSW 12.7 mph 21.9 mph N/A   Clear
9:52 PM 66.0 °F 48.9 °F 54% 29.76 in 10.0 mi South 11.5 mph 19.6 mph N/A   Clear
10:52 PM 64.0 °F 48.9 °F 58% 29.78 in 10.0 mi Calm Calm - N/A   Mostly Cloudy
11:52 PM 63.0 °F 48.0 °F 58% 29.76 in 10.0 mi SSW 5.8 mph - N/A   Partly Cloudy